Weather History for Madison, SD

Change the Weather History Date:

Wednesday, November 20, 2013

  Actual Average Record
Temperature  
Mean Temperature 39 °F -  
Max Temperature 50 °F 37 °F 57 °F (2012)
Min Temperature 28 °F 20 °F 0 °F (2011)
Degree Days  
Heating Degree Days 26    
Moisture  
Dew Point 29 °F    
Average Humidity 66    
Maximum Humidity 100    
Minimum Humidity 49    
Precipitation  
Precipitation 0.00 in - - ()
Sea Level Pressure  
Sea Level Pressure 29.79 in    
Wind  
Wind Speed 15 mph (SSE)    
Max Wind Speed 24 mph    
Max Gust Speed 33 mph    
Visibility 10 miles    
Events      
Averages and records for this station are not official NWS values.
T = Trace of Precipitation, MM = Missing Value Source: NWS Daily Summary

Daily Weather History Graph

Daily Weather History Graph

Search for Another Location

Airport:

Trip Planner

Search our weather history database for the weather conditions in past years. The results will help you decide how hot, cold, wet, or windy it might be!

Date:

Astronomy

Nov. 20, 2013 Rise Set
Actual Time 7:30 AM CST 4:57 PM CST
Civil Twilight 6:58 AM CST 5:29 PM CST
Nautical Twilight 6:23 AM CST 6:04 PM CST
Astronomical Twilight 5:48 AM CST 6:38 PM CST
Moon 7:41 PM CST (11/20) 9:56 AM CST (11/20)
Length of Visible Light 10h 30m
Length of Day
9h 27m
Waning Gibbous, 91% of the Moon is Illuminated
Nov 20
Waning Gibbous
Nov 25
Last Quarter
Dec 2
New
Dec 9
First Quarter
Dec 17
Full

Hourly Weather History & Observations

Time (CST) Temp. Windchill Dew Point Humidity Pressure Visibility Wind Dir Wind Speed Gust Speed Precip Events Conditions
12:10 AM 44.6 °F 35.9 °F 26.6 °F 49% 29.70 in 10.0 mi South 23.0 mph 28.8 mph N/A   Clear
12:30 AM 44.6 °F 35.9 °F 26.6 °F 49% 29.69 in 10.0 mi South 23.0 mph 31.1 mph N/A   Clear
12:50 AM 44.6 °F 35.9 °F 26.6 °F 49% 29.69 in 10.0 mi South 23.0 mph 31.1 mph N/A   Clear
1:10 AM 44.6 °F 35.9 °F 26.6 °F 49% 29.69 in 10.0 mi South 23.0 mph 28.8 mph N/A   Clear
1:30 AM 44.6 °F 35.9 °F 26.6 °F 49% 29.70 in 10.0 mi South 23.0 mph 33.4 mph N/A   Clear
1:50 AM 44.6 °F 35.9 °F 26.6 °F 49% 29.69 in 10.0 mi South 23.0 mph 31.1 mph N/A   Clear
2:10 AM 44.6 °F 36.4 °F 26.6 °F 49% 29.70 in 10.0 mi South 20.7 mph 27.6 mph N/A   Clear
2:30 AM 44.6 °F 36.6 °F 26.6 °F 49% 29.70 in 10.0 mi South 19.6 mph 29.9 mph N/A   Clear
2:50 AM 44.6 °F 36.4 °F 26.6 °F 49% 29.70 in 10.0 mi South 20.7 mph 26.5 mph N/A   Clear
3:10 AM 42.8 °F 34.0 °F 26.6 °F 53% 29.70 in 10.0 mi South 20.7 mph - N/A   Clear
3:30 AM 42.8 °F 35.1 °F 26.6 °F 53% 29.71 in 10.0 mi South 16.1 mph - N/A   Clear
3:50 AM 42.8 °F 34.8 °F 26.6 °F 53% 29.71 in 10.0 mi South 17.3 mph 23.0 mph N/A   Clear
4:10 AM 41.0 °F 32.5 °F 26.6 °F 57% 29.71 in 10.0 mi South 17.3 mph - N/A   Clear
4:30 AM 41.0 °F 32.5 °F 26.6 °F 57% 29.70 in 10.0 mi South 17.3 mph - N/A   Clear
4:50 AM 41.0 °F 31.9 °F 26.6 °F 57% 29.70 in 10.0 mi South 19.6 mph - N/A   Clear
5:10 AM 41.0 °F 33.1 °F 26.6 °F 57% 29.70 in 10.0 mi South 15.0 mph - N/A   Clear
5:30 AM 41.0 °F 32.8 °F 26.6 °F 57% 29.70 in 10.0 mi South 16.1 mph - N/A   Partly Cloudy
5:50 AM 41.0 °F 33.1 °F 26.6 °F 57% 29.70 in 10.0 mi South 15.0 mph - N/A   Partly Cloudy
6:10 AM 39.2 °F 30.5 °F 26.6 °F 61% 29.69 in 10.0 mi South 16.1 mph - N/A   Scattered Clouds
6:30 AM 39.2 °F 31.2 °F 26.6 °F 61% 29.70 in 10.0 mi South 13.8 mph - N/A   Partly Cloudy
6:50 AM 39.2 °F 33.0 °F 28.4 °F 65% 29.72 in 10.0 mi South 9.2 mph - N/A   Clear
7:10 AM 39.2 °F 32.0 °F 28.4 °F 65% 29.72 in 10.0 mi South 11.5 mph - N/A   Partly Cloudy
7:30 AM 37.4 °F 32.1 °F 26.6 °F 65% 29.73 in 10.0 mi South 6.9 mph - N/A   Mostly Cloudy
7:50 AM 37.4 °F 30.8 °F 28.4 °F 70% 29.74 in 10.0 mi South 9.2 mph - N/A   Partly Cloudy
8:10 AM 37.4 °F 31.4 °F 28.4 °F 70% 29.74 in 10.0 mi South 8.1 mph - N/A   Clear
8:30 AM 37.4 °F 32.1 °F 28.4 °F 70% 29.75 in 10.0 mi South 6.9 mph - N/A   Clear
8:50 AM 39.2 °F 35.9 °F 28.4 °F 65% 29.76 in 10.0 mi SSE 4.6 mph - N/A   Partly Cloudy
9:10 AM 39.2 °F 33.0 °F 28.4 °F 65% 29.75 in 10.0 mi SSE 9.2 mph - N/A   Mostly Cloudy
9:30 AM 39.2 °F 32.5 °F 30.2 °F 70% 29.76 in 10.0 mi SSE 10.4 mph - N/A   Scattered Clouds
9:50 AM 41.0 °F 34.3 °F 30.2 °F 65% 29.76 in 10.0 mi South 11.5 mph - N/A   Clear
10:10 AM 41.0 °F 34.7 °F 30.2 °F 65% 29.77 in 10.0 mi South 10.4 mph - N/A   Clear
10:30 AM 44.6 °F 39.2 °F 30.2 °F 57% 29.77 in 10.0 mi South 10.4 mph - N/A   Clear
10:50 AM 44.6 °F 39.2 °F 30.2 °F 57% 29.77 in 10.0 mi South 10.4 mph - N/A   Clear
11:10 AM 46.4 °F 41.9 °F 30.2 °F 53% 29.77 in 10.0 mi South 9.2 mph - N/A   Clear
11:30 AM 46.4 °F 42.4 °F 30.2 °F 53% 29.77 in 10.0 mi South 8.1 mph - N/A   Clear
11:50 AM 48.2 °F - 32.0 °F 54% 29.77 in 10.0 mi South 6.9 mph - N/A   Clear
12:10 PM 48.2 °F - 30.2 °F 50% 29.77 in 10.0 mi South 6.9 mph - N/A   Clear
12:30 PM 48.2 °F - 30.2 °F 50% 29.76 in 10.0 mi South 4.6 mph - N/A   Clear
12:50 PM 48.2 °F - 30.2 °F 50% 29.76 in 10.0 mi SE 9.2 mph - N/A   Clear
1:10 PM 48.2 °F - 32.0 °F 54% 29.75 in 10.0 mi South 6.9 mph - N/A   Clear
1:30 PM 48.2 °F - 32.0 °F 54% 29.75 in 10.0 mi South 5.8 mph - N/A   Clear
1:50 PM 48.2 °F - 32.0 °F 54% 29.75 in 10.0 mi SSE 5.8 mph - N/A   Clear
2:10 PM 50.0 °F - 32.0 °F 50% 29.75 in 10.0 mi SSE 5.8 mph - N/A   Clear
2:30 PM 50.0 °F - 32.0 °F 50% 29.75 in 10.0 mi SE 6.9 mph - N/A   Clear
2:50 PM 50.0 °F - 32.0 °F 50% 29.76 in 10.0 mi SSE 6.9 mph - N/A   Clear
3:10 PM 50.0 °F - 32.0 °F 50% 29.76 in 10.0 mi SSE 6.9 mph - N/A   Clear
3:30 PM 48.2 °F - 32.0 °F 54% 29.77 in 10.0 mi SSE 8.1 mph - N/A   Clear
3:50 PM 48.2 °F - 32.0 °F 54% 29.78 in 10.0 mi SSE 8.1 mph - N/A   Clear
4:10 PM 48.2 °F - 32.0 °F 54% 29.79 in 10.0 mi SSE 6.9 mph - N/A   Clear
4:30 PM 46.4 °F 43.5 °F 32.0 °F 57% 29.79 in 10.0 mi SSE 5.8 mph - N/A   Clear
4:50 PM 46.4 °F 44.3 °F 32.0 °F 57% 29.80 in 10.0 mi SSE 4.6 mph - N/A   Clear
5:10 PM 44.6 °F 42.2 °F 32.0 °F 61% 29.81 in 10.0 mi SSE 4.6 mph - N/A   Clear
5:30 PM 42.8 °F 41.1 °F 32.0 °F 66% 29.83 in 10.0 mi SE 3.5 mph - N/A   Clear
5:50 PM 39.2 °F - 30.2 °F 70% 29.84 in 10.0 mi Calm Calm - N/A   Clear
6:10 PM 39.2 °F - 32.0 °F 75% 29.84 in 10.0 mi Calm Calm - N/A   Clear
6:30 PM 39.2 °F 35.9 °F 32.0 °F 75% 29.84 in 10.0 mi East 4.6 mph - N/A   Clear
6:50 PM 35.6 °F 31.7 °F 32.0 °F 87% 29.85 in 10.0 mi East 4.6 mph - N/A   Clear
7:10 PM 35.6 °F 31.7 °F 32.0 °F 87% 29.85 in 10.0 mi East 4.6 mph - N/A   Clear
7:30 PM 33.8 °F 29.6 °F 32.0 °F 93% 29.86 in 10.0 mi NE 4.6 mph - N/A   Clear
7:50 PM 35.6 °F 27.5 °F 32.0 °F 87% 29.89 in 10.0 mi NNE 11.5 mph - N/A   Clear
8:10 PM 33.8 °F 25.8 °F 32.0 °F 93% 29.90 in 10.0 mi NE 10.4 mph - N/A   Clear
8:30 PM 32.0 °F 23.6 °F 32.0 °F 100% 29.91 in 10.0 mi NE 10.4 mph - N/A   Clear
8:50 PM 32.0 °F 24.8 °F 32.0 °F 100% 29.94 in 10.0 mi North 8.1 mph - N/A   Clear
9:10 PM 30.2 °F 20.8 °F 30.2 °F 100% 29.95 in 10.0 mi North 11.5 mph - N/A   Clear
9:30 PM 28.4 °F 18.0 °F 28.4 °F 100% 29.97 in 10.0 mi North 12.7 mph - N/A   Clear
9:50 PM 28.4 °F 17.5 °F 28.4 °F 100% 29.99 in 10.0 mi North 13.8 mph - N/A   Clear
10:10 PM 28.4 °F 15.8 °F 28.4 °F 100% 29.99 in 10.0 mi North 18.4 mph 23.0 mph N/A   Mostly Cloudy
10:30 PM 28.4 °F 16.2 °F 28.4 °F 100% 30.01 in 10.0 mi North 17.3 mph 23.0 mph N/A   Overcast
10:50 PM 28.4 °F 15.4 °F 28.4 °F 100% 30.01 in 10.0 mi North 19.6 mph 25.3 mph N/A   Overcast
11:10 PM 28.4 °F 15.8 °F 28.4 °F 100% 30.03 in 10.0 mi North 18.4 mph 23.0 mph N/A   Overcast
11:30 PM 28.4 °F 17.0 °F 28.4 °F 100% 30.04 in 10.0 mi North 15.0 mph - N/A   Overcast
11:50 PM 28.4 °F 14.1 °F 28.4 °F 100% 30.04 in 10.0 mi North 24.2 mph 27.6 mph N/A   Overcast